TimeEST,TemperatureF,Dew PointF,Humidity,Sea Level PressureIn,VisibilityMPH,Wind Direction,Wind SpeedMPH,Gust SpeedMPH,PrecipitationIn,Events,Conditions,WindDirDegrees,DateUTC
12:15 AM,24.8,24.8,100,30.00,0.5,East,8.1,-,N/A,Snow,Light Snow,90,2013-02-08 05:15:00
12:35 AM,24.8,24.8,100,29.99,0.2,East,8.1,-,N/A,Fog,Light Freezing Fog,80,2013-02-08 05:35:00
12:55 AM,24.8,24.8,100,29.98,0.2,East,6.9,-,N/A,Fog,Light Freezing Fog,90,2013-02-08 05:55:00
1:15 AM,24.8,24.8,100,29.98,0.2,East,6.9,-,N/A,Fog,Light Freezing Fog,90,2013-02-08 06:15:00
1:35 AM,26.6,26.6,100,29.97,0.2,East,6.9,-,N/A,Fog,Light Freezing Fog,90,2013-02-08 06:35:00
1:55 AM,26.6,26.6,100,29.96,0.2,East,6.9,-,N/A,Snow,Snow,100,2013-02-08 06:55:00
2:15 AM,26.6,26.6,100,29.96,0.2,East,6.9,-,N/A,Snow,Snow,90,2013-02-08 07:15:00
2:35 AM,26.6,26.6,100,29.95,0.2,East,5.8,-,0.01,,Overcast,100,2013-02-08 07:35:00
2:55 AM,26.6,26.6,100,29.94,0.2,East,6.9,-,N/A,Snow,Light Snow,100,2013-02-08 07:55:00
3:15 AM,-9999,-9999,N/A,29.93,0.2,East,5.8,-,N/A,,Unknown,100,2013-02-08 08:15:00
3:35 AM,-9999,-9999,N/A,29.92,0.2,East,5.8,-,N/A,Fog,Fog,100,2013-02-08 08:35:00
3:55 AM,-9999,-9999,N/A,29.90,0.2,ESE,8.1,-,N/A,Fog,Fog,110,2013-02-08 08:55:00
4:35 AM,-9999,-9999,N/A,29.90,0.2,ESE,6.9,-,N/A,,Unknown,120,2013-02-08 09:35:00
4:55 AM,-9999,-9999,N/A,29.90,0.2,ESE,5.8,-,N/A,,Overcast,120,2013-02-08 09:55:00
5:15 AM,-9999,-9999,N/A,29.89,0.2,ESE,6.9,-,N/A,,Overcast,120,2013-02-08 10:15:00
5:35 AM,-9999,-9999,N/A,29.89,0.2,SE,5.8,-,N/A,,Unknown,130,2013-02-08 10:35:00
6:15 AM,-9999,-9999,N/A,29.88,0.2,ESE,4.6,-,N/A,Fog,Fog,120,2013-02-08 11:15:00
6:35 AM,-9999,-9999,N/A,29.88,0.2,ESE,3.5,-,N/A,Fog,Fog,120,2013-02-08 11:35:00
6:55 AM,-9999,-9999,N/A,29.88,0.2,ESE,3.5,-,N/A,,Unknown,120,2013-02-08 11:55:00
7:15 AM,-9999,-9999,N/A,29.87,0.2,SE,5.8,-,0.01,,Overcast,140,2013-02-08 12:15:00
7:35 AM,-9999,-9999,N/A,29.87,0.2,Calm,Calm,-,0.01,,Overcast,0,2013-02-08 12:35:00
7:55 AM,-9999,-9999,N/A,29.87,2.5,SSE,3.5,-,N/A,,Overcast,160,2013-02-08 12:55:00
8:15 AM,-9999,-9999,N/A,29.87,1.2,Calm,Calm,-,N/A,,Overcast,0,2013-02-08 13:15:00
8:35 AM,-9999,-9999,N/A,29.87,0.2,Calm,Calm,-,N/A,Fog,Fog,0,2013-02-08 13:35:00
8:55 AM,30.2,30.2,100,29.86,0.2,West,3.5,-,N/A,Fog,Light Freezing Fog,280,2013-02-08 13:55:00
9:15 AM,32.0,32.0,100,29.85,0.2,Calm,Calm,-,N/A,Fog,Fog,0,2013-02-08 14:15:00
9:35 AM,33.8,33.8,100,29.85,0.8,West,3.5,-,N/A,,Overcast,270,2013-02-08 14:35:00
9:55 AM,33.8,33.8,100,29.84,1.0,WSW,3.5,-,N/A,,Overcast,240,2013-02-08 14:55:00
10:15 AM,32.0,32.0,100,29.84,0.2,West,5.8,-,N/A,,Drizzle,260,2013-02-08 15:15:00
10:35 AM,32.0,32.0,100,29.83,0.2,WSW,5.8,-,N/A,Fog,Fog,250,2013-02-08 15:35:00
10:55 AM,30.2,30.2,100,29.82,0.2,West,8.1,-,N/A,Fog,Light Freezing Fog,270,2013-02-08 15:55:00
11:15 AM,30.2,30.2,100,29.81,0.2,West,10.4,-,N/A,Fog,Light Freezing Fog,280,2013-02-08 16:15:00
11:35 AM,30.2,30.2,100,29.81,0.2,West,12.7,-,N/A,,Overcast,280,2013-02-08 16:35:00
11:55 AM,32.0,32.0,100,29.80,0.2,West,17.3,-,N/A,,Overcast,270,2013-02-08 16:55:00
12:15 PM,32.0,32.0,100,29.78,0.2,West,19.6,25.3,N/A,,Overcast,270,2013-02-08 17:15:00
12:35 PM,32.0,32.0,100,29.77,0.2,West,19.6,-,N/A,,Overcast,280,2013-02-08 17:35:00
1:15 PM,33.8,33.8,100,29.75,0.2,West,21.9,28.8,N/A,Rain,Light Rain,280,2013-02-08 18:15:00
1:35 PM,33.8,33.8,100,29.75,0.2,West,20.7,27.6,N/A,Rain,Light Rain,280,2013-02-08 18:35:00
1:55 PM,33.8,33.8,100,29.75,0.2,West,21.9,29.9,N/A,Rain,Light Rain,280,2013-02-08 18:55:00
2:15 PM,33.8,33.8,100,29.75,10.0,West,17.3,32.2,N/A,,Overcast,280,2013-02-08 19:15:00
2:35 PM,33.8,33.8,100,29.75,10.0,WNW,28.8,39.1,N/A,,Overcast,290,2013-02-08 19:35:00
2:55 PM,32.0,32.0,100,29.74,10.0,WNW,24.2,44.9,N/A,,Overcast,290,2013-02-08 19:55:00
3:15 PM,30.2,30.2,100,29.76,10.0,WNW,23.0,39.1,N/A,,Overcast,290,2013-02-08 20:15:00
3:35 PM,30.2,30.2,100,29.78,10.0,WNW,25.3,36.8,N/A,,Overcast,290,2013-02-08 20:35:00
3:55 PM,28.4,28.4,100,29.79,10.0,WNW,23.0,38.0,N/A,,Overcast,290,2013-02-08 20:55:00
4:15 PM,28.4,28.4,100,29.79,10.0,WNW,21.9,35.7,N/A,,Overcast,300,2013-02-08 21:15:00
4:35 PM,28.4,26.6,93,29.81,10.0,WNW,19.6,31.1,N/A,,Overcast,290,2013-02-08 21:35:00
4:55 PM,28.4,26.6,93,29.81,10.0,West,24.2,35.7,N/A,,Overcast,280,2013-02-08 21:55:00
5:15 PM,26.6,26.6,100,29.81,10.0,WNW,25.3,44.9,N/A,,Overcast,290,2013-02-08 22:15:00
5:35 PM,26.6,26.6,100,29.82,10.0,WNW,20.7,39.1,N/A,,Overcast,290,2013-02-08 22:35:00
5:55 PM,26.6,26.6,100,29.81,10.0,WNW,20.7,36.8,N/A,,Overcast,290,2013-02-08 22:55:00
6:15 PM,26.6,26.6,100,29.83,10.0,WNW,20.7,34.5,N/A,,Overcast,290,2013-02-08 23:15:00
6:35 PM,26.6,24.8,93,29.84,10.0,WNW,18.4,38.0,N/A,,Overcast,290,2013-02-08 23:35:00
6:55 PM,26.6,24.8,93,29.86,7.0,WNW,13.8,25.3,N/A,,Overcast,290,2013-02-08 23:55:00
7:15 PM,26.6,24.8,93,29.86,10.0,WNW,25.3,34.5,N/A,,Overcast,300,2013-02-09 00:15:00
7:35 PM,24.8,24.8,100,29.87,10.0,WNW,19.6,32.2,N/A,,Overcast,300,2013-02-09 00:35:00
7:55 PM,24.8,23.0,93,29.88,10.0,WNW,19.6,35.7,N/A,,Overcast,290,2013-02-09 00:55:00
8:15 PM,24.8,23.0,93,29.89,10.0,WNW,19.6,35.7,N/A,,Overcast,300,2013-02-09 01:15:00
8:35 PM,24.8,23.0,93,29.90,10.0,WNW,20.7,34.5,N/A,,Overcast,300,2013-02-09 01:35:00
8:55 PM,24.8,21.2,86,29.92,10.0,WNW,19.6,38.0,N/A,,Overcast,290,2013-02-09 01:55:00
9:15 PM,23.0,21.2,93,29.93,10.0,WNW,21.9,33.4,N/A,,Overcast,290,2013-02-09 02:15:00
9:35 PM,23.0,21.2,93,29.94,10.0,WNW,19.6,35.7,N/A,,Overcast,300,2013-02-09 02:35:00
9:55 PM,23.0,21.2,93,29.95,10.0,WNW,21.9,31.1,N/A,,Overcast,300,2013-02-09 02:55:00
10:15 PM,23.0,21.2,93,29.95,10.0,WNW,15.0,38.0,N/A,,Overcast,290,2013-02-09 03:15:00
10:35 PM,23.0,21.2,93,29.95,10.0,WNW,20.7,32.2,N/A,,Overcast,300,2013-02-09 03:35:00
10:55 PM,23.0,21.2,93,29.95,10.0,WNW,21.9,33.4,N/A,,Overcast,300,2013-02-09 03:55:00
11:15 PM,23.0,21.2,93,29.97,10.0,WNW,17.3,32.2,N/A,,Overcast,290,2013-02-09 04:15:00
11:35 PM,23.0,21.2,93,29.95,10.0,WNW,20.7,35.7,N/A,,Overcast,300,2013-02-09 04:35:00
11:55 PM,21.2,19.4,93,29.96,10.0,WNW,25.3,41.4,N/A,,Overcast,300,2013-02-09 04:55:00